SJV995 WIII-WADD

Flight info

Callsign SJV995
Flight time 1h 26m
Altitude 33000
Route CA T3 MOVMO
Aircraft A320/M-SDE3FGHIRWY/LB1

Departure

Time 2026-04-27 14:07
Airport Soekarno-Hatta International Airport (WIII)

Arrival

Time 2026-04-27 15:33
Airport Denpasar I Gusti Ngurah Rai International Airport (WADD)
Time Latitude Longitude Altitude Speed Heading
2026-04-27 13:45 -6.12087 106.65077 38 ft 0 kts 124°
2026-04-27 13:58 -6.12086 106.65076 38 ft 1 kts 124°
2026-04-27 13:58 -6.12077 106.65063 38 ft 2 kts 126°
2026-04-27 13:58 -6.12067 106.65050 35 ft 2 kts 128°
2026-04-27 13:58 -6.12060 106.65035 37 ft 2 kts 81°
2026-04-27 13:59 -6.12066 106.65020 36 ft 2 kts 49°
2026-04-27 13:59 -6.12078 106.65009 35 ft 2 kts 23°
2026-04-27 13:59 -6.12083 106.65007 35 ft 0 kts 13°
2026-04-27 14:02 -6.12052 106.65012 37 ft 8 kts 10°
2026-04-27 14:02 -6.11981 106.65025 38 ft 12 kts 10°
2026-04-27 14:02 -6.11898 106.65006 38 ft 12 kts 333°
2026-04-27 14:02 -6.11878 106.64931 39 ft 13 kts 251°
2026-04-27 14:03 -6.11914 106.64837 39 ft 13 kts 248°
2026-04-27 14:03 -6.11952 106.64743 39 ft 16 kts 249°
2026-04-27 14:03 -6.11999 106.64630 39 ft 19 kts 248°
2026-04-27 14:03 -6.12051 106.64497 38 ft 22 kts 248°
2026-04-27 14:04 -6.12110 106.64348 39 ft 24 kts 248°
2026-04-27 14:04 -6.12175 106.64186 36 ft 21 kts 248°
2026-04-27 14:04 -6.12213 106.64090 38 ft 16 kts 248°
2026-04-27 14:04 -6.12252 106.63992 38 ft 8 kts 248°
2026-04-27 14:05 -6.12251 106.63927 39 ft 11 kts 298°
2026-04-27 14:05 -6.12182 106.63893 39 ft 11 kts
2026-04-27 14:05 -6.12171 106.63895 41 ft 2 kts
2026-04-27 14:05 -6.12142 106.63899 41 ft 6 kts
2026-04-27 14:06 -6.12090 106.63914 40 ft 9 kts 47°
2026-04-27 14:06 -6.12050 106.64010 40 ft 38 kts 69°
2026-04-27 14:06 -6.11846 106.64523 41 ft 116 kts 69°
2026-04-27 14:06 -6.11470 106.65468 118 ft 167 kts 68°
2026-04-27 14:07 -6.11030 106.66552 805 ft 169 kts 62°
2026-04-27 14:07 -6.10327 106.67463 1666 ft 161 kts 48°
2026-04-27 14:07 -6.09552 106.68323 2319 ft 175 kts 48°
2026-04-27 14:07 -6.08686 106.69287 2874 ft 195 kts 51°
2026-04-27 14:08 -6.08123 106.70589 3370 ft 217 kts 84°
2026-04-27 14:08 -6.08089 106.72159 4097 ft 228 kts 94°
2026-04-27 14:08 -6.08205 106.73712 5303 ft 220 kts 95°
2026-04-27 14:08 -6.08330 106.75246 6288 ft 222 kts 95°
2026-04-27 14:09 -6.08430 106.76806 7140 ft 225 kts 94°
2026-04-27 14:09 -6.08506 106.78389 8009 ft 228 kts 93°
2026-04-27 14:09 -6.08566 106.79993 8871 ft 232 kts 93°
2026-04-27 14:09 -6.08619 106.81622 9747 ft 235 kts 92°
2026-04-27 14:10 -6.08671 106.83250 10525 ft 237 kts 93°
2026-04-27 14:10 -6.08723 106.84917 11329 ft 240 kts 93°
2026-04-27 14:10 -6.08777 106.86603 12118 ft 243 kts 93°
2026-04-27 14:10 -6.08832 106.88307 12921 ft 245 kts 93°
2026-04-27 14:11 -6.09090 106.89995 13707 ft 246 kts 110°
2026-04-27 14:11 -6.09677 106.91614 14396 ft 248 kts 111°
2026-04-27 14:11 -6.10285 106.93251 15095 ft 251 kts 111°
2026-04-27 14:11 -6.10902 106.94909 15778 ft 254 kts 111°
2026-04-27 14:12 -6.11522 106.96583 16460 ft 257 kts 110°
2026-04-27 14:12 -6.12148 106.98278 17128 ft 260 kts 110°
2026-04-27 14:12 -6.12783 107.00002 17798 ft 264 kts 110°
2026-04-27 14:12 -6.13422 107.01740 18423 ft 267 kts 110°
2026-04-27 14:13 -6.14067 107.03497 19001 ft 269 kts 110°
2026-04-27 14:13 -6.14718 107.05270 19552 ft 272 kts 110°
2026-04-27 14:13 -6.15376 107.07063 20114 ft 275 kts 110°
2026-04-27 14:13 -6.16032 107.08850 20642 ft 278 kts 110°
2026-04-27 14:14 -6.16709 107.10692 21186 ft 281 kts 110°
2026-04-27 14:14 -6.17392 107.12552 21705 ft 285 kts 110°
2026-04-27 14:14 -6.18083 107.14435 22233 ft 288 kts 111°
2026-04-27 14:14 -6.18781 107.16337 22754 ft 292 kts 111°
2026-04-27 14:15 -6.19489 107.18266 23253 ft 295 kts 111°
2026-04-27 14:15 -6.20204 107.20214 23705 ft 299 kts 111°
2026-04-27 14:15 -6.20926 107.22182 24116 ft 302 kts 111°
2026-04-27 14:15 -6.21655 107.24170 24547 ft 304 kts 110°
2026-04-27 14:16 -6.22393 107.26182 24952 ft 308 kts 110°
2026-04-27 14:16 -6.23137 107.28211 25352 ft 311 kts 110°
2026-04-27 14:16 -6.23889 107.30259 25772 ft 314 kts 110°
2026-04-27 14:16 -6.24647 107.32328 26149 ft 318 kts 110°
2026-04-27 14:17 -6.25405 107.34395 26549 ft 320 kts 110°
2026-04-27 14:17 -6.26180 107.36508 26928 ft 324 kts 110°
2026-04-27 14:17 -6.26961 107.38640 27309 ft 326 kts 110°
2026-04-27 14:17 -6.27749 107.40789 27703 ft 329 kts 110°
2026-04-27 14:18 -6.28546 107.42964 28068 ft 332 kts 110°
2026-04-27 14:18 -6.29348 107.45153 28434 ft 335 kts 110°
2026-04-27 14:18 -6.30157 107.47362 28806 ft 338 kts 110°
2026-04-27 14:18 -6.30973 107.49590 29154 ft 341 kts 110°
2026-04-27 14:19 -6.31797 107.51839 29516 ft 344 kts 110°
2026-04-27 14:19 -6.32626 107.54103 29887 ft 347 kts 110°
2026-04-27 14:19 -6.33453 107.56361 30171 ft 350 kts 110°
2026-04-27 14:19 -6.34296 107.58663 30490 ft 352 kts 110°
2026-04-27 14:20 -6.35147 107.60989 30808 ft 354 kts 110°
2026-04-27 14:20 -6.36000 107.63318 31113 ft 356 kts 110°
2026-04-27 14:20 -6.36858 107.65664 31404 ft 359 kts 109°
2026-04-27 14:20 -6.37724 107.68030 31704 ft 361 kts 109°
2026-04-27 14:21 -6.38593 107.70404 31991 ft 364 kts 109°
2026-04-27 14:21 -6.39470 107.72802 32248 ft 367 kts 109°
2026-04-27 14:21 -6.40355 107.75220 32530 ft 369 kts 109°
2026-04-27 14:21 -6.41244 107.77653 32797 ft 372 kts 109°
2026-04-27 14:22 -6.42147 107.80124 32873 ft 380 kts 109°
2026-04-27 14:22 -6.43059 107.82621 32884 ft 391 kts 109°
2026-04-27 14:22 -6.44020 107.85251 32880 ft 401 kts 109°
2026-04-27 14:22 -6.44980 107.87880 32883 ft 412 kts 109°
2026-04-27 14:23 -6.45976 107.90619 32886 ft 422 kts 108°
2026-04-27 14:23 -6.47327 107.96495 32884 ft 441 kts 101°
2026-04-27 14:24 -6.48593 108.02659 32884 ft 459 kts 101°
2026-04-27 14:24 -6.49928 108.09062 32890 ft 476 kts 101°
2026-04-27 14:25 -6.51308 108.15630 32885 ft 480 kts 101°
2026-04-27 14:25 -6.52686 108.22190 32890 ft 479 kts 101°
2026-04-27 14:26 -6.54062 108.28751 32885 ft 478 kts 101°
2026-04-27 14:26 -6.55426 108.35254 32886 ft 478 kts 101°
2026-04-27 14:27 -6.56794 108.41785 32886 ft 477 kts 101°
2026-04-27 14:27 -6.58160 108.48309 32884 ft 477 kts 101°
2026-04-27 14:28 -6.59528 108.54844 32884 ft 477 kts 101°
2026-04-27 14:28 -6.60895 108.61382 32882 ft 478 kts 101°
2026-04-27 14:29 -6.62263 108.67925 32879 ft 478 kts 101°
2026-04-27 14:29 -6.63400 108.73370 32880 ft 478 kts 101°
2026-04-27 14:30 -6.64770 108.79932 32876 ft 479 kts 101°
2026-04-27 14:30 -6.66137 108.86488 32877 ft 479 kts 101°
2026-04-27 14:31 -6.67505 108.93051 32876 ft 479 kts 101°
2026-04-27 14:31 -6.68864 108.99578 32877 ft 480 kts 101°
2026-04-27 14:32 -6.70232 109.06148 32876 ft 480 kts 101°
2026-04-27 14:32 -6.71599 109.12721 32872 ft 480 kts 101°
2026-04-27 14:33 -6.72965 109.19295 32872 ft 480 kts 101°
2026-04-27 14:33 -6.74329 109.25862 32871 ft 480 kts 101°
2026-04-27 14:34 -6.75695 109.32443 32870 ft 479 kts 101°
2026-04-27 14:34 -6.77054 109.38997 32874 ft 478 kts 101°
2026-04-27 14:35 -6.78404 109.45509 32871 ft 478 kts 101°
2026-04-27 14:35 -6.79759 109.52051 32873 ft 477 kts 101°
2026-04-27 14:36 -6.81111 109.58583 32873 ft 476 kts 101°
2026-04-27 14:36 -6.82464 109.65126 32872 ft 477 kts 101°
2026-04-27 14:37 -6.83815 109.71661 32880 ft 477 kts 101°
2026-04-27 14:37 -6.85163 109.78189 32879 ft 476 kts 101°
2026-04-27 14:38 -6.86510 109.84713 32875 ft 476 kts 101°
2026-04-27 14:38 -6.87667 109.90326 32883 ft 476 kts 101°
2026-04-27 14:39 -6.89002 109.96799 32885 ft 476 kts 101°
2026-04-27 14:39 -6.90346 110.03326 32884 ft 476 kts 101°
2026-04-27 14:40 -6.91687 110.09844 32885 ft 475 kts 101°
2026-04-27 14:40 -6.93028 110.16362 32884 ft 475 kts 101°
2026-04-27 14:41 -6.94366 110.22872 32883 ft 475 kts 101°
2026-04-27 14:41 -6.95702 110.29379 32885 ft 475 kts 101°
2026-04-27 14:42 -6.97028 110.35885 32884 ft 474 kts 99°
2026-04-27 14:42 -6.97559 110.42492 32884 ft 473 kts 90°
2026-04-27 14:43 -6.97668 110.49116 32886 ft 473 kts 90°
2026-04-27 14:43 -6.97792 110.55754 32879 ft 474 kts 90°
2026-04-27 14:44 -6.97913 110.62395 32878 ft 474 kts 90°
2026-04-27 14:44 -6.98030 110.68990 32877 ft 474 kts 90°
2026-04-27 14:45 -6.98147 110.75621 32879 ft 474 kts 90°
2026-04-27 14:45 -6.98263 110.82252 32878 ft 474 kts 90°
2026-04-27 14:46 -6.98379 110.88893 32878 ft 474 kts 90°
2026-04-27 14:46 -6.98493 110.95527 32878 ft 474 kts 90°
2026-04-27 14:47 -6.98606 111.02171 32881 ft 474 kts 90°
2026-04-27 14:47 -6.98719 111.08803 32882 ft 474 kts 90°
2026-04-27 14:48 -6.98830 111.15441 32882 ft 474 kts 90°
2026-04-27 14:48 -6.98996 111.25383 32885 ft 473 kts 90°
2026-04-27 14:49 -6.99104 111.31969 32886 ft 473 kts 90°
2026-04-27 14:49 -6.99305 111.38593 32884 ft 474 kts 95°
2026-04-27 14:50 -7.00683 111.45077 32883 ft 475 kts 108°
2026-04-27 14:50 -7.03193 111.51249 32885 ft 477 kts 111°
2026-04-27 14:51 -7.05768 111.57402 32886 ft 477 kts 111°
2026-04-27 14:51 -7.07906 111.62515 32883 ft 477 kts 111°
2026-04-27 14:52 -7.10899 111.69674 32883 ft 477 kts 111°
2026-04-27 14:52 -7.13480 111.75847 32881 ft 477 kts 111°
2026-04-27 14:53 -7.16056 111.82009 32884 ft 477 kts 111°
2026-04-27 14:53 -7.18640 111.88194 32884 ft 478 kts 111°
2026-04-27 14:54 -7.21205 111.94337 32885 ft 479 kts 111°
2026-04-27 14:54 -7.23791 112.00531 32886 ft 479 kts 111°
2026-04-27 14:55 -7.26376 112.06726 32886 ft 480 kts 111°
2026-04-27 14:55 -7.28963 112.12929 32886 ft 481 kts 111°
2026-04-27 14:56 -7.31553 112.19142 32884 ft 481 kts 111°
2026-04-27 14:56 -7.34143 112.25359 32886 ft 481 kts 111°
2026-04-27 14:57 -7.36737 112.31586 32888 ft 482 kts 111°
2026-04-27 14:57 -7.39331 112.37816 32891 ft 482 kts 111°
2026-04-27 14:58 -7.41906 112.44003 32893 ft 482 kts 111°
2026-04-27 14:58 -7.44502 112.50246 32900 ft 482 kts 111°
2026-04-27 14:59 -7.47096 112.56485 32900 ft 482 kts 111°
2026-04-27 14:59 -7.49687 112.62718 32905 ft 482 kts 111°
2026-04-27 15:00 -7.52274 112.68946 32910 ft 482 kts 112°
2026-04-27 15:00 -7.54862 112.75182 32909 ft 482 kts 112°
2026-04-27 15:01 -7.57428 112.81365 32909 ft 481 kts 112°
2026-04-27 15:01 -7.60009 112.87589 32906 ft 481 kts 112°
2026-04-27 15:02 -7.62591 112.93815 32907 ft 481 kts 111°
2026-04-27 15:02 -7.65166 113.00027 32901 ft 480 kts 111°
2026-04-27 15:03 -7.67739 113.06239 32907 ft 480 kts 111°
2026-04-27 15:03 -7.70304 113.12436 32904 ft 479 kts 111°
2026-04-27 15:04 -7.72868 113.18632 32898 ft 478 kts 111°
2026-04-27 15:04 -7.75427 113.24816 32910 ft 477 kts 111°
2026-04-27 15:05 -7.77964 113.30954 32919 ft 477 kts 111°
2026-04-27 15:05 -7.80514 113.37126 32917 ft 477 kts 111°
2026-04-27 15:06 -7.83062 113.43294 32918 ft 476 kts 111°
2026-04-27 15:06 -7.85608 113.49460 32915 ft 476 kts 111°
2026-04-27 15:07 -7.88152 113.55626 32924 ft 475 kts 111°
2026-04-27 15:07 -7.90690 113.61780 32928 ft 475 kts 111°
2026-04-27 15:08 -7.93231 113.67941 32935 ft 475 kts 111°
2026-04-27 15:08 -7.95770 113.74105 32937 ft 475 kts 111°
2026-04-27 15:09 -7.98305 113.80259 32891 ft 475 kts 111°
2026-04-27 15:09 -7.99765 113.83248 32657 ft 476 kts 121°
2026-04-27 15:09 -8.01791 113.85905 32419 ft 479 kts 133°
2026-04-27 15:10 -8.04285 113.88083 32178 ft 482 kts 144°
2026-04-27 15:10 -8.07206 113.89745 31937 ft 485 kts 155°
2026-04-27 15:10 -8.10414 113.90796 31712 ft 488 kts 167°
2026-04-27 15:10 -8.13784 113.91293 31477 ft 490 kts 172°
2026-04-27 15:11 -8.17181 113.91628 31241 ft 491 kts 173°
2026-04-27 15:11 -8.20592 113.91960 31006 ft 492 kts 173°
2026-04-27 15:11 -8.24001 113.92324 30593 ft 492 kts 172°
2026-04-27 15:11 -8.27391 113.92716 30132 ft 487 kts 172°
2026-04-27 15:12 -8.30747 113.93121 29421 ft 483 kts 172°
2026-04-27 15:12 -8.34065 113.93530 28692 ft 478 kts 172°
2026-04-27 15:12 -8.37348 113.93937 28125 ft 470 kts 171°
2026-04-27 15:12 -8.40520 113.94329 27858 ft 447 kts 171°
2026-04-27 15:13 -8.43533 113.94701 27633 ft 426 kts 171°
2026-04-27 15:13 -8.46420 113.95057 27253 ft 410 kts 171°
2026-04-27 15:13 -8.49230 113.95406 26528 ft 405 kts 171°
2026-04-27 15:13 -8.52012 113.95752 25825 ft 401 kts 171°
2026-04-27 15:14 -8.54770 113.96095 25123 ft 397 kts 170°
2026-04-27 15:14 -8.57382 113.96719 24447 ft 387 kts 155°
2026-04-27 15:14 -8.59677 113.98065 23765 ft 377 kts 137°
2026-04-27 15:14 -8.61418 113.99989 23045 ft 368 kts 121°
2026-04-27 15:15 -8.62525 114.02278 22281 ft 359 kts 107°
2026-04-27 15:15 -8.63308 114.04665 21538 ft 356 kts 107°
2026-04-27 15:15 -8.64089 114.07021 20843 ft 352 kts 107°
2026-04-27 15:15 -8.64867 114.09354 20163 ft 348 kts 107°
2026-04-27 15:16 -8.65638 114.11661 19506 ft 345 kts 107°
2026-04-27 15:16 -8.66403 114.13945 18850 ft 342 kts 107°
2026-04-27 15:16 -8.67164 114.16217 18210 ft 339 kts 107°
2026-04-27 15:16 -8.67916 114.18463 17513 ft 335 kts 107°
2026-04-27 15:17 -8.68659 114.20683 16893 ft 333 kts 107°
2026-04-27 15:17 -8.69387 114.22860 16474 ft 329 kts 107°
2026-04-27 15:17 -8.70118 114.25043 16051 ft 326 kts 107°
2026-04-27 15:17 -8.70842 114.27207 15612 ft 324 kts 107°
2026-04-27 15:18 -8.71563 114.29364 15185 ft 322 kts 107°
2026-04-27 15:18 -8.72276 114.31495 14773 ft 319 kts 107°
2026-04-27 15:18 -8.72985 114.33616 14358 ft 317 kts 108°
2026-04-27 15:18 -8.73451 114.35010 14090 ft 315 kts 108°
2026-04-27 15:19 -8.74150 114.37102 13680 ft 313 kts 108°
2026-04-27 15:19 -8.74844 114.39178 13212 ft 309 kts 108°
2026-04-27 15:19 -8.75529 114.41226 12555 ft 306 kts 108°
2026-04-27 15:19 -8.76207 114.43256 11916 ft 303 kts 108°
2026-04-27 15:20 -8.76880 114.45269 11301 ft 300 kts 108°
2026-04-27 15:20 -8.77544 114.47257 10687 ft 297 kts 108°
2026-04-27 15:20 -8.78201 114.49224 10100 ft 294 kts 108°
2026-04-27 15:20 -8.78852 114.51176 9492 ft 291 kts 108°
2026-04-27 15:21 -8.79497 114.53107 8822 ft 289 kts 108°
2026-04-27 15:21 -8.80135 114.55022 8176 ft 286 kts 108°
2026-04-27 15:21 -8.80769 114.56925 7553 ft 284 kts 108°
2026-04-27 15:21 -8.81397 114.58807 6935 ft 282 kts 109°
2026-04-27 15:22 -8.82015 114.60660 6331 ft 280 kts 109°
2026-04-27 15:22 -8.82634 114.62515 5988 ft 267 kts 109°
2026-04-27 15:22 -8.83201 114.64212 5835 ft 249 kts 109°
2026-04-27 15:22 -8.83737 114.65822 5639 ft 235 kts 109°
2026-04-27 15:23 -8.84251 114.67375 5241 ft 231 kts 107°
2026-04-27 15:23 -8.84397 114.68983 4784 ft 233 kts 83°
2026-04-27 15:23 -8.83899 114.70540 4350 ft 233 kts 68°
2026-04-27 15:23 -8.83261 114.72041 3933 ft 231 kts 69°
2026-04-27 15:24 -8.82644 114.73526 3517 ft 229 kts 69°
2026-04-27 15:24 -8.82035 114.75010 3144 ft 226 kts 69°
2026-04-27 15:24 -8.81437 114.76477 3018 ft 228 kts 70°
2026-04-27 15:24 -8.80830 114.77967 2985 ft 227 kts 69°
2026-04-27 15:25 -8.80232 114.79430 2987 ft 230 kts 69°
2026-04-27 15:25 -8.79626 114.80912 2988 ft 228 kts 69°
2026-04-27 15:25 -8.79020 114.82395 2987 ft 228 kts 69°
2026-04-27 15:25 -8.78411 114.83883 2993 ft 229 kts 69°
2026-04-27 15:26 -8.77802 114.85373 2993 ft 228 kts 69°
2026-04-27 15:26 -8.77196 114.86857 2999 ft 229 kts 69°
2026-04-27 15:26 -8.76588 114.88340 2990 ft 223 kts 69°
2026-04-27 15:26 -8.76018 114.89730 2990 ft 206 kts 69°
2026-04-27 15:27 -8.75556 114.91076 2996 ft 201 kts 80°
2026-04-27 15:27 -8.75451 114.92489 2983 ft 204 kts 92°
2026-04-27 15:27 -8.75482 114.93903 2922 ft 198 kts 92°
2026-04-27 15:27 -8.75499 114.95279 2694 ft 189 kts 91°
2026-04-27 15:28 -8.75507 114.96552 2514 ft 188 kts 91°
2026-04-27 15:28 -8.75515 114.97890 2492 ft 180 kts 91°
2026-04-27 15:28 -8.75519 114.99051 2483 ft 151 kts 91°
2026-04-27 15:28 -8.75513 115.00048 2431 ft 142 kts 90°
2026-04-27 15:29 -8.75479 115.01018 2350 ft 135 kts 89°
2026-04-27 15:29 -8.75433 115.01928 2161 ft 125 kts 89°
2026-04-27 15:29 -8.75391 115.02806 1901 ft 122 kts 89°
2026-04-27 15:29 -8.75353 115.03691 1743 ft 128 kts 89°
2026-04-27 15:30 -8.75314 115.04579 1560 ft 127 kts 89°
2026-04-27 15:30 -8.75280 115.05467 1424 ft 126 kts 89°
2026-04-27 15:30 -8.75246 115.06353 1352 ft 126 kts 89°
2026-04-27 15:30 -8.75212 115.07239 1309 ft 128 kts 89°
2026-04-27 15:31 -8.75177 115.08136 1249 ft 125 kts 89°
2026-04-27 15:31 -8.75143 115.09023 1184 ft 128 kts 89°
2026-04-27 15:31 -8.75109 115.09915 1068 ft 124 kts 89°
2026-04-27 15:31 -8.75073 115.10800 920 ft 130 kts 90°
2026-04-27 15:32 -8.75042 115.11691 734 ft 127 kts 89°
2026-04-27 15:32 -8.75011 115.12592 587 ft 130 kts 88°
2026-04-27 15:32 -8.74974 115.13516 409 ft 132 kts 88°
2026-04-27 15:32 -8.74936 115.14448 254 ft 134 kts 87°
2026-04-27 15:33 -8.74900 115.15387 59 ft 133 kts 87°
2026-04-27 15:33 -8.74864 115.16244 28 ft 98 kts 87°
2026-04-27 15:33 -8.74844 115.16729 27 ft 41 kts 87°
2026-04-27 15:33 -8.74839 115.16884 28 ft 25 kts 88°
2026-04-27 15:34 -8.74827 115.17110 27 ft 23 kts 88°
2026-04-27 15:34 -8.74822 115.17252 27 ft 19 kts 88°
2026-04-27 15:34 -8.74771 115.17314 28 ft 13 kts
2026-04-27 15:34 -8.74694 115.17308 31 ft 11 kts 338°
2026-04-27 15:35 -8.74658 115.17244 32 ft 12 kts 270°
2026-04-27 15:35 -8.74659 115.17156 32 ft 14 kts 269°
2026-04-27 15:35 -8.74665 115.17045 32 ft 17 kts 264°
2026-04-27 15:35 -8.74669 115.16953 32 ft 8 kts 277°
2026-04-27 15:36 -8.74621 115.16936 32 ft 9 kts 358°
2026-04-27 15:36 -8.74545 115.16934 33 ft 10 kts 358°